Time,TemperatureF,DewpointF,PressureIn,WindDirection,WindDirectionDegrees,WindSpeedMPH,WindSpeedGustMPH,Humidity,HourlyPrecipIn,Conditions,Clouds,dailyrainin,SoftwareType,DateUTC
2013-04-07 00:02:00,72.0,69.0,30.15,NE,53,2.0,6.0,89,0.00,,,0.00,,2013-04-07 10:02:00,
2013-04-07 00:13:00,72.0,69.0,30.15,NE,53,2.0,6.0,89,0.00,,,0.00,,2013-04-07 10:13:00,
2013-04-07 00:22:00,72.0,69.0,30.15,NE,53,3.0,5.0,89,0.00,,,0.00,,2013-04-07 10:22:00,
2013-04-07 00:32:00,72.0,69.0,30.14,NE,53,0.0,4.0,89,0.00,,,0.00,,2013-04-07 10:32:00,
2013-04-07 00:42:00,72.0,69.0,30.14,NE,53,0.0,4.0,89,0.00,,,0.00,,2013-04-07 10:42:00,
2013-04-07 00:53:00,72.0,69.0,30.14,NE,55,1.0,5.0,89,0.00,,,0.00,,2013-04-07 10:53:00,
2013-04-07 01:02:00,73.0,70.0,30.14,NE,55,1.0,4.0,89,0.00,,,0.00,,2013-04-07 11:02:00,
2013-04-07 01:11:00,73.0,70.0,30.14,NE,55,1.0,4.0,89,0.00,,,0.00,,2013-04-07 11:11:00,
2013-04-07 01:21:00,73.0,70.0,30.14,NE,56,6.0,6.0,89,0.00,,,0.00,,2013-04-07 11:21:00,
2013-04-07 01:32:00,72.0,69.0,30.13,ENE,57,3.0,8.0,89,0.00,,,0.00,,2013-04-07 11:32:00,
2013-04-07 01:42:00,72.0,69.0,30.13,ENE,57,3.0,8.0,89,0.00,,,0.00,,2013-04-07 11:42:00,
2013-04-07 01:53:00,72.0,69.0,30.13,ENE,71,1.0,8.0,89,0.00,,,0.00,,2013-04-07 11:53:00,
2013-04-07 02:02:00,72.0,69.0,30.12,ENE,78,0.0,7.0,89,0.00,,,0.00,,2013-04-07 12:02:00,
2013-04-07 02:12:00,72.0,69.0,30.12,ENE,78,0.0,7.0,89,0.00,,,0.00,,2013-04-07 12:12:00,
2013-04-07 02:21:00,72.0,69.0,30.12,ENE,78,3.0,5.0,89,0.00,,,0.00,,2013-04-07 12:21:00,
2013-04-07 02:32:00,72.0,69.0,30.11,ENE,77,1.0,8.0,89,0.00,,,0.00,,2013-04-07 12:32:00,
2013-04-07 02:42:00,72.0,69.0,30.11,ENE,77,1.0,8.0,89,0.00,,,0.00,,2013-04-07 12:42:00,
2013-04-07 02:53:00,72.0,69.0,30.11,ENE,57,1.0,7.0,89,0.00,,,0.00,,2013-04-07 12:53:00,
2013-04-07 03:02:00,72.0,69.0,30.11,ENE,67,5.0,9.0,89,0.00,,,0.00,,2013-04-07 13:02:00,
2013-04-07 03:11:00,72.0,69.0,30.11,ENE,67,5.0,9.0,89,0.00,,,0.00,,2013-04-07 13:11:00,
2013-04-07 03:22:00,72.0,69.0,30.11,ENE,67,0.0,8.0,89,0.00,,,0.00,,2013-04-07 13:22:00,
2013-04-07 03:31:00,72.0,69.0,30.10,ENE,70,0.0,7.0,89,0.00,,,0.00,,2013-04-07 13:31:00,
2013-04-07 03:41:00,72.0,69.0,30.10,ENE,70,0.0,7.0,89,0.00,,,0.00,,2013-04-07 13:41:00,
2013-04-07 03:52:00,72.0,69.0,30.10,ENE,76,0.0,7.0,89,0.00,,,0.00,,2013-04-07 13:52:00,
2013-04-07 04:01:00,72.0,69.0,30.10,ENE,67,3.0,9.0,89,0.00,,,0.00,,2013-04-07 14:01:00,
2013-04-07 04:11:00,72.0,69.0,30.10,ENE,67,3.0,9.0,89,0.00,,,0.00,,2013-04-07 14:11:00,
2013-04-07 04:21:00,72.0,69.0,30.10,ENE,65,4.0,9.0,89,0.00,,,0.00,,2013-04-07 14:21:00,
2013-04-07 04:32:00,72.0,69.0,30.10,NE,55,4.0,8.0,89,0.00,,,0.00,,2013-04-07 14:32:00,
2013-04-07 04:42:00,72.0,69.0,30.10,NE,55,4.0,8.0,89,0.00,,,0.00,,2013-04-07 14:42:00,
2013-04-07 04:53:00,72.0,69.0,30.10,NE,51,8.0,9.0,89,0.00,,,0.00,,2013-04-07 14:53:00,
2013-04-07 05:01:00,72.0,69.0,30.10,ENE,61,7.0,10.0,89,0.00,,,0.00,,2013-04-07 15:01:00,
2013-04-07 05:11:00,72.0,69.0,30.10,NE,55,0.0,7.0,89,0.00,,,0.00,,2013-04-07 15:11:00,
2013-04-07 05:21:00,72.0,69.0,30.10,NE,55,0.0,7.0,89,0.00,,,0.00,,2013-04-07 15:21:00,
2013-04-07 05:32:00,72.0,69.0,30.11,NE,51,7.0,10.0,89,0.00,,,0.00,,2013-04-07 15:32:00,
2013-04-07 05:43:00,72.0,69.0,30.11,NE,51,7.0,10.0,89,0.00,,,0.00,,2013-04-07 15:43:00,
2013-04-07 05:53:00,72.0,69.0,30.11,NE,37,6.0,12.0,89,0.00,,,0.00,,2013-04-07 15:53:00,
2013-04-07 06:02:00,72.0,69.0,30.11,NE,35,0.0,11.0,89,0.00,,,0.00,,2013-04-07 16:02:00,
2013-04-07 06:12:00,72.0,69.0,30.11,NE,35,0.0,11.0,89,0.00,,,0.00,,2013-04-07 16:12:00,
2013-04-07 06:23:00,72.0,69.0,30.11,NNW,336,0.0,9.0,89,0.00,,,0.00,,2013-04-07 16:23:00,
2013-04-07 06:32:00,72.0,69.0,30.11,NNE,22,7.0,15.0,89,0.00,,,0.00,,2013-04-07 16:32:00,
2013-04-07 06:42:00,72.0,69.0,30.11,NNE,22,7.0,15.0,89,0.00,,,0.00,,2013-04-07 16:42:00,
2013-04-07 06:53:00,72.0,69.0,30.12,NNE,13,6.0,14.0,89,0.00,,,0.00,,2013-04-07 16:53:00,
2013-04-07 07:02:00,72.0,69.0,30.12,NNE,24,6.0,11.0,89,0.00,,,0.00,,2013-04-07 17:02:00,
2013-04-07 07:12:00,72.0,69.0,30.12,NNE,24,6.0,11.0,89,0.00,,,0.00,,2013-04-07 17:12:00,
2013-04-07 07:22:00,72.0,69.0,30.12,North,355,3.0,9.0,89,0.00,,,0.00,,2013-04-07 17:22:00,
2013-04-07 07:32:00,72.0,69.0,30.12,NNE,31,8.0,16.0,89,0.00,,,0.00,,2013-04-07 17:32:00,
2013-04-07 07:42:00,72.0,69.0,30.12,NNE,31,8.0,16.0,89,0.00,,,0.00,,2013-04-07 17:42:00,
2013-04-07 07:52:00,72.0,69.0,30.13,NNW,329,1.0,13.0,89,0.00,,,0.00,,2013-04-07 17:52:00,
2013-04-07 08:02:00,73.0,70.0,30.13,NE,44,7.0,14.0,89,0.00,,,0.00,,2013-04-07 18:02:00,
2013-04-07 08:12:00,73.0,70.0,30.13,NE,44,7.0,14.0,89,0.00,,,0.00,,2013-04-07 18:12:00,
2013-04-07 08:21:00,73.0,70.0,30.14,ENE,61,7.0,15.0,89,0.00,,,0.00,,2013-04-07 18:21:00,
2013-04-07 08:32:00,73.0,69.0,30.15,NE,51,12.0,16.0,88,0.00,,,0.00,,2013-04-07 18:32:00,
2013-04-07 08:42:00,73.0,69.0,30.15,NE,51,12.0,16.0,88,0.00,,,0.00,,2013-04-07 18:42:00,
2013-04-07 08:52:00,73.0,69.0,30.15,NE,53,7.0,16.0,88,0.00,,,0.00,,2013-04-07 18:52:00,
2013-04-07 09:02:00,74.0,70.0,30.15,NE,41,8.0,15.0,87,0.00,,,0.00,,2013-04-07 19:02:00,
2013-04-07 09:11:00,74.0,70.0,30.15,NE,41,8.0,15.0,87,0.00,,,0.00,,2013-04-07 19:11:00,
2013-04-07 09:21:00,74.0,70.0,30.15,ENE,63,5.0,10.0,86,0.00,,,0.00,,2013-04-07 19:21:00,
2013-04-07 09:32:00,74.0,69.0,30.16,East,91,10.0,15.0,85,0.00,,,0.00,,2013-04-07 19:32:00,
2013-04-07 09:42:00,74.0,69.0,30.16,East,91,10.0,15.0,85,0.00,,,0.00,,2013-04-07 19:42:00,
2013-04-07 09:52:00,75.0,70.0,30.16,ENE,61,4.0,13.0,85,0.00,,,0.00,,2013-04-07 19:52:00,
2013-04-07 10:02:00,76.0,71.0,30.16,ENE,71,7.0,16.0,84,0.00,,,0.00,,2013-04-07 20:02:00,
2013-04-07 10:11:00,76.0,71.0,30.16,ENE,71,7.0,16.0,84,0.00,,,0.00,,2013-04-07 20:11:00,
2013-04-07 10:22:00,76.0,70.0,30.16,East,96,14.0,18.0,83,0.00,,,0.00,,2013-04-07 20:22:00,
2013-04-07 10:31:00,77.0,71.0,30.16,East,94,6.0,15.0,82,0.00,,,0.00,,2013-04-07 20:31:00,
2013-04-07 10:42:00,77.0,71.0,30.16,East,94,6.0,15.0,82,0.00,,,0.00,,2013-04-07 20:42:00,
2013-04-07 10:53:00,78.0,71.0,30.16,ENE,65,7.0,14.0,78,0.00,,,0.00,,2013-04-07 20:53:00,
2013-04-07 11:02:00,79.0,71.0,30.16,ENE,69,14.0,24.0,77,0.00,,,0.00,,2013-04-07 21:02:00,
2013-04-07 11:11:00,79.0,71.0,30.16,ENE,69,14.0,24.0,77,0.00,,,0.00,,2013-04-07 21:11:00,
2013-04-07 11:21:00,78.0,71.0,30.15,ESE,103,14.0,21.0,78,0.00,,,0.00,,2013-04-07 21:21:00,
2013-04-07 11:33:00,80.0,71.0,30.14,ENE,63,10.0,17.0,75,0.00,,,0.00,,2013-04-07 21:33:00,
2013-04-07 11:42:00,80.0,71.0,30.14,ENE,63,10.0,17.0,75,0.00,,,0.00,,2013-04-07 21:42:00,
2013-04-07 11:53:00,80.0,71.0,30.14,East,83,13.0,19.0,74,0.00,,,0.00,,2013-04-07 21:53:00,
2013-04-07 12:02:00,81.0,72.0,30.14,East,83,13.0,18.0,73,0.00,,,0.00,,2013-04-07 22:02:00,
2013-04-07 12:12:00,81.0,72.0,30.14,East,83,13.0,18.0,73,0.00,,,0.00,,2013-04-07 22:12:00,
2013-04-07 12:22:00,80.0,71.0,30.14,NNE,21,6.0,15.0,73,0.00,,,0.00,,2013-04-07 22:22:00,
2013-04-07 12:32:00,82.0,72.0,30.13,ESE,115,11.0,20.0,71,0.00,,,0.00,,2013-04-07 22:32:00,
2013-04-07 12:42:00,82.0,72.0,30.13,ESE,115,11.0,20.0,71,0.00,,,0.00,,2013-04-07 22:42:00,
2013-04-07 12:53:00,79.0,70.0,30.13,East,96,11.0,19.0,74,0.00,,,0.00,,2013-04-07 22:53:00,
2013-04-07 13:02:00,77.0,70.0,30.12,ENE,69,9.0,14.0,78,0.00,,,0.00,,2013-04-07 23:02:00,
2013-04-07 13:12:00,77.0,70.0,30.12,ENE,69,9.0,14.0,78,0.00,,,0.00,,2013-04-07 23:12:00,
2013-04-07 13:22:00,78.0,71.0,30.12,ENE,74,7.0,19.0,79,0.00,,,0.00,,2013-04-07 23:22:00,
2013-04-07 13:32:00,79.0,71.0,30.11,East,97,9.0,18.0,77,0.00,,,0.00,,2013-04-07 23:32:00,
2013-04-07 13:42:00,79.0,71.0,30.11,East,97,9.0,18.0,77,0.00,,,0.00,,2013-04-07 23:42:00,
2013-04-07 13:52:00,81.0,72.0,30.10,East,95,14.0,23.0,75,0.00,,,0.00,,2013-04-07 23:52:00,
2013-04-07 14:02:00,81.0,71.0,30.11,NE,35,9.0,18.0,72,0.00,,,0.00,,2013-04-08 00:02:00,
2013-04-07 14:11:00,81.0,71.0,30.11,NE,35,9.0,18.0,72,0.00,,,0.00,,2013-04-08 00:11:00,
2013-04-07 14:22:00,79.0,70.0,30.10,ENE,64,2.0,14.0,74,0.00,,,0.00,,2013-04-08 00:22:00,
2013-04-07 14:32:00,79.0,70.0,30.09,ENE,69,11.0,14.0,74,0.00,,,0.00,,2013-04-08 00:32:00,
2013-04-07 14:42:00,79.0,70.0,30.09,ENE,69,11.0,14.0,74,0.00,,,0.00,,2013-04-08 00:42:00,
2013-04-07 14:52:00,79.0,70.0,30.10,ENE,65,8.0,13.0,74,0.00,,,0.00,,2013-04-08 00:52:00,
2013-04-07 15:01:00,79.0,70.0,30.09,East,89,7.0,13.0,73,0.00,,,0.00,,2013-04-08 01:01:00,
2013-04-07 15:11:00,79.0,70.0,30.09,East,89,7.0,13.0,73,0.00,,,0.00,,2013-04-08 01:11:00,
2013-04-07 15:22:00,79.0,70.0,30.09,East,79,5.0,11.0,75,0.00,,,0.00,,2013-04-08 01:22:00,
2013-04-07 15:32:00,78.0,70.0,30.08,NE,56,10.0,11.0,76,0.00,,,0.00,,2013-04-08 01:32:00,
2013-04-07 15:42:00,78.0,70.0,30.08,NE,56,10.0,11.0,76,0.00,,,0.00,,2013-04-08 01:42:00,
2013-04-07 15:54:00,78.0,70.0,30.08,ENE,63,3.0,10.0,76,0.00,,,0.00,,2013-04-08 01:54:00,
2013-04-07 16:01:00,78.0,70.0,30.08,ENE,58,11.0,13.0,77,0.00,,,0.00,,2013-04-08 02:01:00,
2013-04-07 16:11:00,78.0,70.0,30.08,ENE,58,11.0,13.0,77,0.00,,,0.00,,2013-04-08 02:11:00,
2013-04-07 16:21:00,77.0,69.0,30.08,East,82,3.0,17.0,77,0.00,,,0.00,,2013-04-08 02:21:00,
2013-04-07 16:32:00,77.0,70.0,30.07,East,96,14.0,16.0,78,0.00,,,0.00,,2013-04-08 02:32:00,
2013-04-07 16:42:00,77.0,70.0,30.07,East,96,14.0,16.0,78,0.00,,,0.00,,2013-04-08 02:42:00,
2013-04-07 16:53:00,76.0,69.0,30.07,East,92,9.0,17.0,79,0.00,,,0.00,,2013-04-08 02:53:00,
2013-04-07 17:02:00,76.0,69.0,30.07,East,95,7.0,16.0,80,0.00,,,0.00,,2013-04-08 03:02:00,
2013-04-07 17:12:00,76.0,69.0,30.07,East,95,7.0,16.0,80,0.00,,,0.00,,2013-04-08 03:12:00,
2013-04-07 17:22:00,76.0,70.0,30.07,ENE,69,5.0,12.0,81,0.00,,,0.00,,2013-04-08 03:22:00,
2013-04-07 17:32:00,75.0,69.0,30.07,ENE,75,8.0,13.0,81,0.00,,,0.00,,2013-04-08 03:32:00,
2013-04-07 17:42:00,75.0,69.0,30.07,ENE,75,8.0,13.0,81,0.00,,,0.00,,2013-04-08 03:42:00,
2013-04-07 17:53:00,75.0,69.0,30.07,East,82,7.0,15.0,82,0.00,,,0.00,,2013-04-08 03:53:00,
2013-04-07 18:02:00,75.0,69.0,30.07,East,89,3.0,14.0,83,0.00,,,0.00,,2013-04-08 04:02:00,
2013-04-07 18:12:00,75.0,69.0,30.07,East,89,3.0,14.0,83,0.00,,,0.00,,2013-04-08 04:12:00,
2013-04-07 18:22:00,75.0,69.0,30.07,ENE,74,9.0,13.0,83,0.00,,,0.00,,2013-04-08 04:22:00,
2013-04-07 18:32:00,75.0,69.0,30.07,ENE,67,3.0,12.0,83,0.00,,,0.00,,2013-04-08 04:32:00,
2013-04-07 18:43:00,75.0,69.0,30.07,ENE,67,3.0,12.0,83,0.00,,,0.00,,2013-04-08 04:43:00,
2013-04-07 18:52:00,74.0,68.0,30.08,ENE,71,7.0,14.0,83,0.00,,,0.00,,2013-04-08 04:52:00,
2013-04-07 19:02:00,74.0,69.0,30.08,ENE,74,8.0,14.0,84,0.00,,,0.00,,2013-04-08 05:02:00,
2013-04-07 19:11:00,74.0,69.0,30.08,ENE,74,8.0,14.0,84,0.00,,,0.00,,2013-04-08 05:11:00,
2013-04-07 19:21:00,74.0,69.0,30.08,ENE,74,8.0,14.0,84,0.00,,,0.00,,2013-04-08 05:21:00,
2013-04-07 19:32:00,73.0,68.0,30.09,East,91,9.0,16.0,84,0.00,,,0.00,,2013-04-08 05:32:00,
2013-04-07 19:42:00,73.0,68.0,30.09,NE,53,5.0,14.0,85,0.00,,,0.00,,2013-04-08 05:42:00,
2013-04-07 19:51:00,73.0,68.0,30.09,NE,53,5.0,14.0,85,0.00,,,0.00,,2013-04-08 05:51:00,
2013-04-07 20:02:00,73.0,68.0,30.09,East,82,9.0,11.0,85,0.00,,,0.00,,2013-04-08 06:02:00,
2013-04-07 20:12:00,72.0,67.0,30.10,East,80,5.0,9.0,85,0.00,,,0.00,,2013-04-08 06:12:00,
2013-04-07 20:21:00,72.0,67.0,30.10,East,80,5.0,9.0,85,0.00,,,0.00,,2013-04-08 06:21:00,
2013-04-07 20:32:00,72.0,67.0,30.10,East,94,5.0,11.0,85,0.00,,,0.00,,2013-04-08 06:32:00,
2013-04-07 20:42:00,72.0,67.0,30.10,East,94,5.0,11.0,85,0.00,,,0.00,,2013-04-08 06:42:00,
2013-04-07 20:52:00,72.0,67.0,30.11,East,88,6.0,11.0,85,0.00,,,0.00,,2013-04-08 06:52:00,
2013-04-07 21:01:00,72.0,68.0,30.11,East,79,3.0,9.0,86,0.00,,,0.00,,2013-04-08 07:01:00,
2013-04-07 21:11:00,72.0,68.0,30.12,East,80,5.0,13.0,86,0.00,,,0.00,,2013-04-08 07:11:00,
2013-04-07 21:21:00,72.0,68.0,30.12,East,80,5.0,13.0,86,0.00,,,0.00,,2013-04-08 07:21:00,
2013-04-07 21:32:00,72.0,68.0,30.12,East,80,5.0,13.0,86,0.00,,,0.00,,2013-04-08 07:32:00,
2013-04-07 21:42:00,72.0,68.0,30.12,East,80,5.0,13.0,86,0.00,,,0.00,,2013-04-08 07:42:00,
2013-04-07 21:52:00,72.0,68.0,30.12,ENE,69,7.0,10.0,86,0.00,,,0.00,,2013-04-08 07:52:00,
2013-04-07 22:02:00,71.0,67.0,30.12,East,88,6.0,13.0,87,0.00,,,0.00,,2013-04-08 08:02:00,
2013-04-07 22:11:00,71.0,67.0,30.12,East,88,6.0,13.0,87,0.00,,,0.00,,2013-04-08 08:11:00,
2013-04-07 22:21:00,71.0,67.0,30.12,East,88,6.0,13.0,87,0.00,,,0.00,,2013-04-08 08:21:00,
2013-04-07 22:31:00,71.0,67.0,30.12,ENE,76,0.0,9.0,87,0.00,,,0.00,,2013-04-08 08:31:00,
2013-04-07 22:42:00,71.0,67.0,30.13,East,83,0.0,7.0,87,0.00,,,0.00,,2013-04-08 08:42:00,
2013-04-07 22:52:00,71.0,67.0,30.13,East,83,0.0,7.0,87,0.00,,,0.00,,2013-04-08 08:52:00,
2013-04-07 23:01:00,71.0,67.0,30.13,East,80,0.0,8.0,87,0.00,,,0.00,,2013-04-08 09:01:00,
2013-04-07 23:11:00,71.0,67.0,30.12,East,83,6.0,10.0,87,0.00,,,0.00,,2013-04-08 09:11:00,
2013-04-07 23:22:00,71.0,67.0,30.12,East,83,6.0,10.0,87,0.00,,,0.00,,2013-04-08 09:22:00,
2013-04-07 23:32:00,71.0,67.0,30.12,ENE,57,1.0,10.0,88,0.00,,,0.00,,2013-04-08 09:32:00,
2013-04-07 23:42:00,71.0,67.0,30.11,NE,46,13.0,13.0,88,0.00,,,0.00,,2013-04-08 09:42:00,
2013-04-07 23:53:00,71.0,67.0,30.11,NE,46,13.0,13.0,88,0.00,,,0.00,,2013-04-08 09:53:00,